This demonstration page uses our WeatherBlox Daily Observations layout. Learn more.

36.17497, -115.13722

Hourly Observations for July 9, 2016

Temp ( °F °C ) Dew Point ( °F °C ) Humidity (%) Winds ( mph kmh ) Pressure ( in mb ) Visibility ( mi km ) Precip ( " mm )
12:53 am 00:53 Clear 89 31.7 31 -0.6 12 12 WSW 10 17 29.68 1005 10 16.09344 0 0
1:53 am 01:53 Clear 90 32.2 35 1.7 14 14 SW 16 26 29.71 1006 10 16.09344 0 0
2:53 am 02:53 Clear 88 31.1 36 2.2 16 16 SW 8 13 29.74 1007 10 16.09344 0 0
3:53 am 03:53 Clear 85 29.4 39 3.9 20 20 SSW 12 19 29.74 1007 10 16.09344 0 0
4:53 am 04:53 Clear 84 28.9 40 4.4 21 21 S 12 19 29.77 1008 10 16.09344 0 0
5:53 am 05:53 Sunny 83 28.3 40 4.4 22 22 S 9 15 29.77 1008 10 16.09344 0 0
6:53 am 06:53 Sunny 84 28.9 41 5 22 22 SSE 8 13 29.8 1009 10 16.09344 0 0
7:53 am 07:53 Sunny 87 30.6 40 4.4 19 19 SSE 9 15 29.83 1010 10 16.09344 0 0
8:53 am 08:53 Sunny 91 32.8 39 3.9 16 16 S 14 22 29.8 1009 10 16.09344 0 0
9:53 am 09:53 Sunny 94 34.4 37 2.8 14 14 S 18 30 29.8 1009 10 16.09344 0 0
10:53 am 10:53 Sunny 97 36.1 32 0 10 10 SSW 22 35 29.8 1009 10 16.09344 0 0
11:53 am 11:53 Sunny 98 36.7 31 -0.6 9 9 SSW 17 28 29.74 1007 10 16.09344 0 0
12:01 pm 12:01 Sunny 99 37.2 32 0 9 9 S 22 35 29.74 1007 10 16.09344 0 0
12:53 pm 12:53 Sunny 100 37.8 30 -1.1 8 8 SSW 18 30 29.74 1007 10 16.09344 0 0
1:53 pm 13:53 Sunny 101 38.3 29 -1.7 8 8 SSW 20 31 29.71 1006 10 16.09344 0 0
2:53 pm 14:53 Sunny 101 38.3 31 -0.6 8 8 S 14 22 29.71 1006 10 16.09344 0 0
3:53 pm 15:53 Sunny 101 38.3 31 -0.6 8 8 WSW 10 17 29.65 1004 10 16.09344 0 0
4:53 pm 16:53 Sunny 100 37.8 28 -2.2 8 8 SW 15 24 29.65 1004 10 16.09344 0 0
5:53 pm 17:53 Sunny 99 37.2 30 -1.1 9 9 S 15 24 29.62 1003 10 16.09344 0 0
6:53 pm 18:53 Sunny 100 37.8 25 -3.9 7 7 WSW 15 24 29.62 1003 10 16.09344 0 0
7:53 pm 19:53 Sunny 98 36.7 28 -2.2 8 8 SW 14 22 29.59 1002 10 16.09344 0 0
8:53 pm 20:53 Clear 96 35.6 31 -0.6 10 10 SW 12 19 29.59 1002 10 16.09344 0 0
9:53 pm 21:53 Clear 95 35 34 1.1 12 12 SW 12 19 29.59 1002 10 16.09344 0 0
10:53 pm 22:53 Clear 93 33.9 29 -1.7 10 10 SW 14 22 29.65 1004 10 16.09344 0 0
11:53 pm 23:53 Clear 90 32.2 33 0.6 13 13 S 7 11 29.65 1004 10 16.09344 0 0

Powered by AerisWeather